Voltar ao catálogo

STARLINK-5053

AtivoComunicaçõesVLEO
NORAD 53913·PAYLOAD·🇺🇸 United States

Lançado Sep 24, 2022 de Cape Canaveral Space Force Station

Loading…

Próximas Passagens (próximas 24 horas)

TLE

AtualizadoSource: CelesTrak SupGP

Época: Sep 14, 2026, 21:38 UTC

1 53913C 22119AD  26257.90187500 -.00017519  00000+0 -10985-2 0  2574
2 53913  53.1586 184.0700 0001626  88.9314 128.7995 15.08847420    10

Acompanhe STARLINK-5053 em tempo real com AllMySat

Download on the App Store